Regional Weather Roundup
Issued by NWS

Home | Current Version | Previous Version | Text Only | Print | Product List | Glossary Off
Versions: 1 2 3 4 5 6 7 8 9 10 11 12 13 14 15 16 17 18 19 20 21 22 23 24 25 26 27 28 29 30 31 32 33 34 35 36 37 38 39 40 41 42 43 44 45 46 47 48 49 50

000
ASUS43 KMPX 281810
RWRMN
WEATHER ROUNDUP FOR MINNESOTA
NATIONAL WEATHER SERVICE TWIN CITIES/CHANHASSEN MN
100 PM CDT TUE MAR 28 2017


NOTE: "FAIR" INDICATES FEW OR NO CLOUDS BELOW 12,000 FEET WITH NO
SIGNIFICANT WEATHER AND/OR OBSTRUCTIONS TO VISIBILITY. N/A MEANS
CURRENT SKY AND/OR WEATHER CONDITIONS ARE NOT AVAILABLE.

MNZ060>063-068>070-281900-
   Twin Cities Metro

CITY           SKY/WX    TMP DP  RH WIND       PRES   REMARKS
TWIN CITIES    MOSUNNY   58  36  43 SE6       30.15F
6HR MIN TEMP:  35; 6HR MAX TEMP:  59;

ST PAUL        SUNNY     58  37  45 VRB3      30.16S
CRYSTAL        SUNNY     58  28  32 E5        30.15S
BLAINE         MOSUNNY   59  36  41 CALM      30.15S
LAKEVILLE      SUNNY     55  37  50 E5        30.15S
EDEN PRAIRIE   SUNNY     60  33  36 CALM      30.14F
6HR MIN TEMP:  35; 6HR MAX TEMP:  60;

SOUTH ST PAUL  SUNNY     58  37  45 CALM      30.15F
LAKE ELMO      FAIR      55  36  47 CALM      30.16F
$$
MNZ001>005-007-008-013>017-022>024-027-028-281900-
   Northwest Minnesota

CITY           SKY/WX    TMP DP  RH WIND       PRES   REMARKS
BEMIDJI        SUNNY     54  29  39 E5        30.17R
HALLOCK        PTSUNNY   43  37  81 CALM      30.22R
ROSEAU         MOSUNNY   50  36  57 E7        30.21R
WARROAD        SUNNY     39  30  70 NE7       30.22S
THIEF RVR FALL SUNNY     51  34  52 NE8       30.20R
CROOKSTON      SUNNY     52  39  62 NE6       30.20S
FOSSTON        SUNNY     54  39  58 E6        30.18R
DETROIT LAKES  SUNNY     55  32  41 NW3       30.17S
MOORHEAD       MOSUNNY   43  43 100 N9        30.19S
PARK RAPIDS    SUNNY     58  26  29 NW3       30.14S
MAHNOMEN       FAIR      54  35  48 NE3       30.17R
$$
MNZ006-009>011-018-025>026-281900-
   North Central Minnesota

CITY           SKY/WX    TMP DP  RH WIND       PRES   REMARKS
BAUDETTE       SUNNY     51  31  46 N8        30.19F
FLAG ISLAND    SUNNY     39  25  56 N12       30.22F
INTL FALLS     SUNNY     50  29  44 N7        30.19S
6HR MIN TEMP:  34; 6HR MAX TEMP:  50;

WASKISH        MOSUNNY   55  34  44 N8        30.17S
BIG FORK       SUNNY     57  30  35 CALM      30.16S
LONGVILLE      PTSUNNY   55  28  35 CALM      30.16S
GRAND RAPIDS   CLOUDY    53  32  44 CALM      30.18R
CRANE LAKE     SUNNY     50  28  43 N6        30.19S
ORR            SUNNY     54  25  32 CALM      30.15S
COOK           SUNNY     54  30  40 NE5       30.17S
WALKER         FAIR      54  31  42 NE7       30.16S
$$
MNZ012-019>021-037-281900-
   Northeast Minnesota

CITY           SKY/WX    TMP DP  RH WIND       PRES   REMARKS
DULUTH         MOSUNNY   56  32  40 CALM      30.15S
6HR MIN TEMP:  26; 6HR MAX TEMP:  56;

ELY            SUNNY     52  25  35 NE5       30.16S
HIBBING        CLOUDY    53  30  41 VRB5      30.15R
EVELETH        SUNNY     55  24  29 W6        30.16S
DULUTH HARBOR  SUNNY     41  36  81 CALM      30.18S
TWO HARBORS    MOSUNNY   57  37  47 S7        30.14S
SILVER BAY     PTSUNNY   55  34  44 S9        30.13S
GRAND MARAIS     N/A     40  34  79 MISG      30.19R
G MARAIS ARPRT CLOUDY    46  27  46 SE7       30.16R
$$
MNZ029>031-032-039>041-046>048-054>057-064-281900-
   West Central Minnesota

CITY           SKY/WX    TMP DP  RH WIND       PRES   REMARKS
FERGUS FALLS   SUNNY     54  41  62 SW5       30.20S
WHEATON        PTSUNNY   46  37  71 NW5       30.20S
MORRIS         MOSUNNY   57  37  47 CALM      30.15F
ALEXANDRIA     SUNNY     58  35  42 W5        30.16S
ELBOW LAKE     FAIR      53  40  61 NW5       30.17S
WADENA         SUNNY     57  36  44 CALM      30.15S
GLENWOOD       MOSUNNY   57  36  44 CALM      30.16S
APPLETON       MOSUNNY   57  36  44 CALM      30.16S
BENSON         PTSUNNY   63  30  29 SW3       30.18S
ORTONVILLE     MOSUNNY   52  37  58 N3        30.17F
MADISON        PTSUNNY   57  41  54 CALM      30.17R
WILLMAR        FAIR      57  36  44 NE6       30.17S
$$
MNZ033>034-036-042>043-049>051-058-059-281900-
   Central Minnesota

CITY           SKY/WX    TMP DP  RH WIND       PRES   REMARKS
ST CLOUD       SUNNY     59  32  36 VRB5      30.16R
6HR MIN TEMP:  27; 6HR MAX TEMP:  59;

SAUK CENTRE    FAIR      57  36  45 CALM      30.16S
PAYNESVILLE    CLOUDY    58  33  39 CALM      30.17R
AITKIN         SUNNY     61  25  25 W3        30.15S
PINE RIVER     SUNNY     57  36  44 CALM      30.18S
BRAINERD       SUNNY     58  34  40 SW6       30.15F
STAPLES        SUNNY     57  34  41 CALM      30.15S
LONG PRAIRIE   FAIR      55  36  47 CALM      30.16S
LITTLE FALLS   SUNNY     55  32  41 W3        30.16S
LITCHFIELD     SUNNY     59  36  41 N5        30.16S
BUFFALO        MOSUNNY   57  31  36 NE7       30.17S
MAPLE LAKE     MOSUNNY   57  34  40 E6        30.17S
HUTCHINSON     SUNNY     59  36  41 NE6       30.16F
$$
MNZ037-044-045-052-053-281900-
   East Central Minnesota

CITY           SKY/WX    TMP DP  RH WIND       PRES   REMARKS
PRINCETON      SUNNY     59  30  33 N3        30.16S
MORA           SUNNY     55  32  41 SE5       30.17F
CAMBRIDGE      SUNNY     57  36  44 NE5       30.14F
RUSH CITY      SUNNY     58  30  35 NW7       30.16S
MOOSE LAKE     SUNNY     59  32  36 CALM      30.14F
CLOQUET        SUNNY     55  27  33 CALM      30.15S
MCGREGOR       MOSUNNY   57  34  41 NW5       30.16S
$$
MNZ071>073-080-081-089-090-097-098-281900-
   Southwest Minnesota

CITY           SKY/WX    TMP DP  RH WIND       PRES   REMARKS
MONTEVIDEO     MOSUNNY   59  37  44 E7        30.18S
GRANITE FALLS  SUNNY     62  37  39 E7        30.17S
CANBY          CLOUDY    58  37  45 CALM      30.17S HAZE
MARSHALL       SUNNY     58  37  45 SE12      30.15F
REDWOOD FALLS  SUNNY     60  35  39 NE7       30.15S
OLIVIA         SUNNY     59  37  44 E8        30.15S
PIPESTONE      MOSUNNY   55  30  38 SE6       30.14S
WINDOM         SUNNY     57  37  47 NE6       30.15S
WORTHINGTON    MOSUNNY   55  38  52 E9G17     30.15F
JACKSON          N/A     55  37  50 E9        30.15S
TRACY          SUNNY     58  38  47 NE6       30.15S
SLAYTON        SUNNY     55  37  49 NE7       30.16R
$$
MNZ065>067-074>077-082>085-091>093-281900-
   South Central Minnesota

CITY           SKY/WX    TMP DP  RH WIND       PRES   REMARKS
MANKATO        SUNNY     56  38  50 VRB5      30.16S
NEW ULM        SUNNY     57  34  41 CALM      30.15S
ST JAMES       SUNNY     55  39  54 CALM      30.17R
FAIRMONT       SUNNY     54  41  61 SE9       30.15F
GLENCOE        SUNNY     59  37  43 E3        30.15S
FARIBAULT      SUNNY     57  39  51 E5        30.15F
OWATONNA       SUNNY     55  37  50 SE7       30.16S
WASECA         SUNNY     54  37  54 CALM      30.17S
ALBERT LEA     SUNNY     52  37  58 NE9       30.15S
$$
MNZ078>079-086>088-094>096-281900-
   Southeast Minnesota

CITY           SKY/WX    TMP DP  RH WIND       PRES   REMARKS
ROCHESTER      SUNNY     52  40  63 NE7       30.16S
RED WING       SUNNY     54  37  54 S6        30.15F
STANTON        SUNNY     56  38  52 CALM      30.15S
DODGE CENTER   SUNNY     52  39  62 CALM      30.16R
WINONA         SUNNY     52  39  62 SE5       30.17S
AUSTIN         MOSUNNY   54  39  58 NE5       30.15S
PRESTON        SUNNY     50  35  56 E9        30.15F
$$
ABBREVIATIONS USED IN REMARKS
   TC - TEMPERATURES IN CELSIUS
  WCI - WIND CHILL INDEX
   HX - HEAT INDEX
  VSB - VISIBILITY
$$



USA.gov is the U.S. government's official web portal to all federal, state and local government web resources and services.